"Period start","avg(HW err(1)/warn(2) (#))","avg(Visibility (m))","avg(Weather code (#))","avg(Precip intensity (mm/h))","min(HW err(1)/warn(2) (#))","max(HW err(1)/warn(2) (#))","std(HW err(1)/warn(2) (#))","med(HW err(1)/warn(2) (#))","min(Visibility (m))","max(Visibility (m))","std(Visibility (m))","med(Visibility (m))","min(Weather code (#))","max(Weather code (#))","std(Weather code (#))","med(Weather code (#))","min(Precip intensity (mm/h))","max(Precip intensity (mm/h))","std(Precip intensity (mm/h))","med(Precip intensity (mm/h))"
2016-10-23 00:00:00,2,14660,0,0.00,2,2,0,2,6933,24212,4907,13273,0,0,0,0,0.00,0.00,0.00,0.00
2016-10-23 00:10:00,2,16824,0,0.00,2,2,0,2,9015,24992,5179,17758,0,0,0,0,0.00,0.00,0.00,0.00
2016-10-23 00:20:00,2,15619,0,0.00,2,2,0,2,9970,20733,4064,15962,0,0,0,0,0.00,0.00,0.00,0.00
2016-10-23 00:30:00,2,13187,0,0.00,2,2,0,2,8421,20455,3760,12532,0,0,0,0,0.00,0.00,0.00,0.00
2016-10-23 00:40:00,2,12678,0,0.00,2,2,0,2,9991,18031,2306,12203,0,0,0,0,0.00,0.00,0.00,0.00
2016-10-23 00:50:00,2,12063,0,0.00,2,2,0,2,7780,17208,2854,11974,0,0,0,0,0.00,0.00,0.00,0.00
2016-10-23 01:00:00,2,8808,5,0.00,2,2,0,2,7178,11697,1576,8450,0,10,5,5,0.00,0.00,0.00,0.00
2016-10-23 01:10:00,2,12100,10,0.00,2,2,0,2,8055,22750,4178,10592,10,10,0,10,0.00,0.00,0.00,0.00
2016-10-23 01:20:00,2,13971,2,0.00,2,2,0,2,9532,18608,2645,13146,0,10,4,0,0.00,0.00,0.00,0.00
2016-10-23 01:30:00,2,12905,0,0.00,2,2,0,2,9142,18565,2804,11788,0,0,0,0,0.00,0.00,0.00,0.00
2016-10-23 01:40:00,2,16396,0,0.00,2,2,0,2,12643,21016,2415,16881,0,0,0,0,0.00,0.00,0.00,0.00
2016-10-23 01:50:00,2,16985,0,0.00,2,2,0,2,7331,30893,6556,16562,0,0,0,0,0.00,0.00,0.00,0.00
2016-10-23 02:00:00,2,12891,0,0.00,2,2,0,2,6126,18220,3946,13524,0,0,0,0,0.00,0.00,0.00,0.00
2016-10-23 02:10:00,2,10097,0,0.00,2,2,0,2,6099,16237,3082,10040,0,0,0,0,0.00,0.00,0.00,0.00
2016-10-23 02:20:00,2,12460,0,0.00,2,2,0,2,7371,17445,3213,12978,0,0,0,0,0.00,0.00,0.00,0.00
2016-10-23 02:30:00,2,9263,1,0.00,2,2,0,2,5517,13784,2716,9220,0,10,3,0,0.00,0.00,0.00,0.00
2016-10-23 02:40:00,2,12831,10,0.00,2,2,0,2,8581,18769,3090,11823,10,10,0,10,0.00,0.00,0.00,0.00
2016-10-23 02:50:00,2,24832,1,0.00,2,2,0,2,11219,43517,10575,24543,0,10,3,0,0.00,0.00,0.00,0.00
2016-10-23 03:00:00,2,18286,0,0.00,2,2,0,2,12228,35907,6924,15242,0,0,0,0,0.00,0.00,0.00,0.00
2016-10-23 03:10:00,2,25535,0,0.00,2,2,0,2,13676,49151,11065,22239,0,0,0,0,0.00,0.00,0.00,0.00
2016-10-23 03:20:00,2,39040,0,0.00,2,2,0,2,21208,50000,8079,39696,0,0,0,0,0.00,0.00,0.00,0.00
2016-10-23 03:30:00,2,35811,0,0.00,2,2,0,2,17359,48350,8767,34700,0,0,0,0,0.00,0.00,0.00,0.00
2016-10-23 03:40:00,2,47185,0,0.00,2,2,0,2,42883,50000,2533,46690,0,0,0,0,0.00,0.00,0.00,0.00
2016-10-23 03:50:00,2,47393,0,0.00,2,2,0,2,37888,50000,4087,50000,0,0,0,0,0.00,0.00,0.00,0.00
2016-10-23 04:00:00,2,33797,0,0.00,2,2,0,2,14151,50000,10507,34500,0,0,0,0,0.00,0.00,0.00,0.00
2016-10-23 04:10:00,2,46260,0,0.00,2,2,0,2,39827,50000,3302,47312,0,0,0,0,0.00,0.00,0.00,0.00
2016-10-23 04:20:00,2,45143,0,0.00,2,2,0,2,33300,50000,4641,46885,0,0,0,0,0.00,0.00,0.00,0.00
2016-10-23 04:30:00,2,35951,0,0.00,2,2,0,2,24728,48993,6985,35332,0,0,0,0,0.00,0.00,0.00,0.00
2016-10-23 04:40:00,2,40981,0,0.00,2,2,0,2,20465,50000,9408,42940,0,0,0,0,0.00,0.00,0.00,0.00
2016-10-23 04:50:00,2,41555,0,0.00,2,2,0,2,23343,50000,8318,43210,0,0,0,0,0.00,0.00,0.00,0.00
2016-10-23 05:00:00,2,41871,0,0.00,2,2,0,2,30448,50000,7355,41122,0,0,0,0,0.00,0.00,0.00,0.00
2016-10-23 05:10:00,2,42282,0,0.00,2,2,0,2,32640,50000,6150,41106,0,0,0,0,0.00,0.00,0.00,0.00
2016-10-23 05:20:00,2,43087,0,0.00,2,2,0,2,28544,49977,5694,44420,0,0,0,0,0.00,0.00,0.00,0.00
2016-10-23 05:30:00,2,40907,0,0.00,2,2,0,2,18740,50000,9651,44013,0,0,0,0,0.00,0.00,0.00,0.00
2016-10-23 05:40:00,2,45472,0,0.00,2,2,0,2,35735,50000,5410,47992,0,0,0,0,0.00,0.00,0.00,0.00
2016-10-23 05:50:00,2,50000,0,0.00,2,2,0,2,50000,50000,0,50000,0,0,0,0,0.00,0.00,0.00,0.00
2016-10-23 06:00:00,2,50000,0,0.00,2,2,0,2,50000,50000,0,50000,0,0,0,0,0.00,0.00,0.00,0.00
2016-10-23 06:10:00,2,50000,0,0.00,2,2,0,2,50000,50000,0,50000,0,0,0,0,0.00,0.00,0.00,0.00
2016-10-23 06:20:00,2,50000,0,0.00,2,2,0,2,50000,50000,0,50000,0,0,0,0,0.00,0.00,0.00,0.00
2016-10-23 06:30:00,2,50000,0,0.00,2,2,0,2,50000,50000,0,50000,0,0,0,0,0.00,0.00,0.00,0.00
2016-10-23 06:40:00,2,49955,0,0.00,2,2,0,2,49551,50000,135,50000,0,0,0,0,0.00,0.00,0.00,0.00
2016-10-23 06:50:00,2,50000,0,0.00,2,2,0,2,50000,50000,0,50000,0,0,0,0,0.00,0.00,0.00,0.00
2016-10-23 07:00:00,2,50000,0,0.00,2,2,0,2,50000,50000,0,50000,0,0,0,0,0.00,0.00,0.00,0.00
2016-10-23 07:10:00,2,50000,0,0.00,2,2,0,2,50000,50000,0,50000,0,0,0,0,0.00,0.00,0.00,0.00
2016-10-23 07:20:00,2,50000,0,0.00,2,2,0,2,50000,50000,0,50000,0,0,0,0,0.00,0.00,0.00,0.00
2016-10-23 07:30:00,2,49930,0,0.00,2,2,0,2,49301,50000,210,50000,0,0,0,0,0.00,0.00,0.00,0.00
2016-10-23 07:40:00,2,50000,0,0.00,2,2,0,2,50000,50000,0,50000,0,0,0,0,0.00,0.00,0.00,0.00
2016-10-23 07:50:00,2,50000,0,0.00,2,2,0,2,50000,50000,0,50000,0,0,0,0,0.00,0.00,0.00,0.00
2016-10-23 08:00:00,2,49994,0,0.00,2,2,0,2,49938,50000,19,50000,0,0,0,0,0.00,0.00,0.00,0.00
2016-10-23 08:10:00,2,50000,0,0.00,2,2,0,2,50000,50000,0,50000,0,0,0,0,0.00,0.00,0.00,0.00
2016-10-23 08:20:00,2,50000,0,0.00,2,2,0,2,50000,50000,0,50000,0,0,0,0,0.00,0.00,0.00,0.00
2016-10-23 08:30:00,2,50000,0,0.00,2,2,0,2,50000,50000,0,50000,0,0,0,0,0.00,0.00,0.00,0.00
2016-10-23 08:40:00,2,50000,0,0.00,2,2,0,2,50000,50000,0,50000,0,0,0,0,0.00,0.00,0.00,0.00
2016-10-23 08:50:00,2,50000,0,0.00,2,2,0,2,50000,50000,0,50000,0,0,0,0,0.00,0.00,0.00,0.00
2016-10-23 09:00:00,2,49905,0,0.00,2,2,0,2,49052,50000,284,50000,0,0,0,0,0.00,0.00,0.00,0.00
2016-10-23 09:10:00,2,50000,0,0.00,2,2,0,2,50000,50000,0,50000,0,0,0,0,0.00,0.00,0.00,0.00
2016-10-23 09:20:00,2,45541,0,0.00,2,2,0,2,37211,50000,4241,45403,0,0,0,0,0.00,0.00,0.00,0.00
2016-10-23 09:30:00,2,47431,0,0.00,2,2,0,2,39067,50000,3218,48680,0,0,0,0,0.00,0.00,0.00,0.00
2016-10-23 09:40:00,2,43995,0,0.00,2,2,0,2,36835,50000,4023,44132,0,0,0,0,0.00,0.00,0.00,0.00
2016-10-23 09:50:00,2,43620,0,0.00,2,2,0,2,34460,49822,4942,43958,0,0,0,0,0.00,0.00,0.00,0.00
2016-10-23 10:00:00,2,45543,0,0.00,2,2,0,2,39387,50000,3328,45196,0,0,0,0,0.00,0.00,0.00,0.00
2016-10-23 10:10:00,2,38248,14,0.00,2,2,0,2,27081,49461,6686,39678,0,71,28,0,0.00,0.00,0.00,0.00
2016-10-23 10:20:00,2,46640,39,0.00,2,2,0,2,38887,50000,4200,49361,0,78,39,39,0.00,0.00,0.00,0.00
2016-10-23 10:30:00,2,49486,0,0.00,2,2,0,2,45841,50000,1231,50000,0,0,0,0,0.00,0.00,0.00,0.00
2016-10-23 10:40:00,2,46910,0,0.00,2,2,0,2,42296,50000,2514,46730,0,0,0,0,0.00,0.00,0.00,0.00
2016-10-23 10:50:00,2,44810,0,0.00,2,2,0,2,39720,50000,3673,44130,0,0,0,0,0.00,0.00,0.00,0.00
2016-10-23 11:00:00,2,42832,0,0.00,2,2,0,2,33110,50000,6735,43869,0,0,0,0,0.00,0.00,0.00,0.00
2016-10-23 11:10:00,2,49807,0,0.00,2,2,0,2,49019,50000,385,50000,0,0,0,0,0.00,0.00,0.00,0.00
2016-10-23 11:20:00,2,37645,0,0.00,2,2,0,2,25458,49650,9267,37730,0,0,0,0,0.00,0.00,0.00,0.00
2016-10-23 11:30:00,2,22520,0,0.00,2,2,0,2,18776,28789,3166,21171,0,0,0,0,0.00,0.00,0.00,0.00
2016-10-23 11:40:00,2,21759,61,0.00,2,2,0,2,17560,26972,3064,21116,0,78,31,78,0.00,0.00,0.00,0.00
2016-10-23 11:50:00,2,16724,78,0.02,2,2,0,2,11117,25265,5617,13290,78,78,0,78,0.00,0.05,0.02,0.00
2016-10-23 12:00:00,2,16056,76,0.04,2,2,0,2,12794,22663,3066,15448,71,78,3,78,0.00,0.10,0.04,0.03
2016-10-23 12:10:00,2,20790,78,0.00,2,2,0,2,13923,28520,4056,20096,77,78,0,78,0.00,0.00,0.00,0.00
2016-10-23 12:20:00,2,18460,78,0.00,2,2,0,2,14899,24015,2251,18478,78,78,0,78,0.00,0.00,0.00,0.00
2016-10-23 12:30:00,2,15363,78,0.00,2,2,0,2,12719,19779,2158,15492,78,78,0,78,0.00,0.00,0.00,0.00
2016-10-23 12:40:00,2,14986,78,0.01,2,2,0,2,11333,17737,1823,15251,78,78,0,78,0.00,0.05,0.02,0.00
2016-10-23 12:50:00,2,14218,78,0.01,2,2,0,2,11359,16812,1774,14474,77,78,0,78,0.00,0.05,0.02,0.00
2016-10-23 13:00:00,2,13971,75,0.02,2,2,0,2,9938,19687,2647,13704,71,78,3,78,0.00,0.05,0.02,0.00
2016-10-23 13:10:00,2,13998,78,0.02,2,2,0,2,10824,18842,2436,13850,77,78,0,78,0.00,0.05,0.02,0.00
2016-10-23 13:20:00,2,10780,77,0.04,2,2,0,2,7479,14366,2199,10660,77,77,0,77,0.00,0.10,0.04,0.05
2016-10-23 13:30:00,2,9424,77,0.07,2,2,0,2,7992,10675,646,9424,77,77,0,77,0.05,0.15,0.03,0.05
2016-10-23 13:40:00,2,9363,77,0.07,2,2,0,2,7679,10893,956,9325,77,77,0,77,0.05,0.10,0.02,0.05
2016-10-23 13:50:00,2,10334,77,0.08,2,2,0,2,8653,11956,980,10451,77,78,0,77,0.05,0.20,0.05,0.05
2016-10-23 14:00:00,2,8556,72,0.14,2,2,0,2,7223,10858,959,8214,71,78,3,71,0.05,0.40,0.09,0.12
2016-10-23 14:10:00,2,6173,73,0.29,2,2,0,2,5444,7229,458,6263,71,77,3,71,0.15,0.55,0.12,0.25
2016-10-23 14:20:00,2,6065,72,0.24,2,2,0,2,5783,6535,216,6070,71,77,2,71,0.20,0.35,0.05,0.23
2016-10-23 14:30:00,2,5826,72,0.25,2,2,0,2,5045,6351,339,5870,71,77,2,71,0.15,0.45,0.08,0.25
2016-10-23 14:40:00,2,6449,71,0.30,2,2,0,2,5728,7422,574,6358,71,71,0,71,0.20,0.60,0.12,0.25
2016-10-23 14:50:00,2,8638,71,0.14,2,2,0,2,6979,10292,917,8464,71,71,0,71,0.05,0.35,0.10,0.10
2016-10-23 15:00:00,2,9798,72,0.05,2,2,0,2,8384,11297,799,9910,71,77,2,71,0.00,0.10,0.02,0.05
2016-10-23 15:10:00,2,9356,77,0.07,2,2,0,2,8946,10360,382,9278,77,77,0,77,0.05,0.15,0.03,0.05
2016-10-23 15:20:00,2,9471,75,0.07,2,2,0,2,8287,11810,1037,9007,71,77,3,77,0.05,0.15,0.03,0.05
2016-10-23 15:30:00,2,11291,77,0.07,2,2,0,2,9745,12897,792,11178,77,77,0,77,0.05,0.15,0.03,0.05
2016-10-23 15:40:00,2,13908,77,0.04,2,2,0,2,10736,17775,1954,13841,77,77,0,77,0.00,0.05,0.02,0.05
2016-10-23 15:50:00,2,15017,76,0.03,2,2,0,2,12363,16911,1230,15432,71,77,2,77,0.00,0.05,0.02,0.05
2016-10-23 16:00:00,2,12193,77,0.04,2,2,0,2,10008,14776,1520,12112,77,77,0,77,0.00,0.05,0.02,0.05
2016-10-23 16:10:00,2,10273,77,0.04,2,2,0,2,9623,10621,323,10348,77,77,0,77,0.00,0.05,0.02,0.05
2016-10-23 16:20:00,2,12067,77,0.03,2,2,0,2,10063,14047,1224,12097,77,77,0,77,0.00,0.05,0.03,0.03
2016-10-23 16:30:00,2,11660,77,0.04,2,2,0,2,9761,13470,1069,11670,77,77,0,77,0.00,0.05,0.02,0.05
2016-10-23 16:40:00,2,14645,75,0.07,2,2,0,2,11531,16778,1765,15441,71,77,3,77,0.00,0.30,0.08,0.05
2016-10-23 16:50:00,2,7173,75,0.11,2,2,0,2,5091,11361,2179,6426,71,77,3,77,0.05,0.15,0.03,0.10
2016-10-23 17:00:00,2,4375,77,0.23,2,2,0,2,3852,4911,406,4380,77,77,0,77,0.10,0.35,0.06,0.23
2016-10-23 17:10:00,2,4314,77,0.20,2,2,0,2,3730,4766,323,4359,77,77,0,77,0.15,0.35,0.06,0.17
2016-10-23 17:20:00,2,3880,77,0.20,2,2,0,2,3497,4119,175,3922,77,77,0,77,0.10,0.40,0.09,0.20
2016-10-23 17:30:00,2,3931,73,0.32,2,2,0,2,3529,4383,236,3894,71,77,3,71,0.15,0.45,0.08,0.33
2016-10-23 17:40:00,2,5076,75,0.23,2,2,0,2,4400,5954,533,4862,71,77,3,77,0.10,0.35,0.07,0.25
2016-10-23 17:50:00,2,9225,77,0.07,2,2,0,2,6840,12769,2103,8446,77,77,0,77,0.05,0.15,0.03,0.05
2016-10-23 18:00:00,2,14878,77,0.03,2,2,0,2,12132,16947,1367,15162,77,77,0,77,0.00,0.05,0.02,0.05
2016-10-23 18:10:00,2,17880,77,0.04,2,2,0,2,11743,29426,5672,15722,77,77,0,77,0.00,0.05,0.02,0.05
2016-10-23 18:20:00,2,15244,77,0.03,2,2,0,2,11173,25197,4199,13788,77,77,0,77,0.00,0.05,0.02,0.05
2016-10-23 18:30:00,2,10362,77,0.04,2,2,0,2,9455,13240,1131,9838,77,77,0,77,0.00,0.05,0.02,0.05
2016-10-23 18:40:00,2,24377,69,0.03,2,2,0,2,9731,40957,12810,21020,0,77,23,77,0.00,0.05,0.03,0.03
2016-10-23 18:50:00,2,46465,0,0.00,2,2,0,2,41233,50000,2810,45938,0,0,0,0,0.00,0.00,0.00,0.00
2016-10-23 19:00:00,2,49047,0,0.00,2,2,0,2,44122,50000,1888,50000,0,0,0,0,0.00,0.00,0.00,0.00
2016-10-23 19:10:00,2,49976,0,0.00,2,2,0,2,49875,50000,43,50000,0,0,0,0,0.00,0.00,0.00,0.00
2016-10-23 19:20:00,2,41879,0,0.00,2,2,0,2,29361,50000,7959,44834,0,0,0,0,0.00,0.00,0.00,0.00
2016-10-23 19:30:00,2,49965,0,0.00,2,2,0,2,49646,50000,106,50000,0,0,0,0,0.00,0.00,0.00,0.00
2016-10-23 19:40:00,2,50000,0,0.00,2,2,0,2,50000,50000,0,50000,0,0,0,0,0.00,0.00,0.00,0.00
2016-10-23 19:50:00,2,50000,0,0.00,2,2,0,2,50000,50000,0,50000,0,0,0,0,0.00,0.00,0.00,0.00
2016-10-23 20:00:00,2,49836,0,0.00,2,2,0,2,48355,50000,494,50000,0,0,0,0,0.00,0.00,0.00,0.00
2016-10-23 20:10:00,2,49624,0,0.00,2,2,0,2,46244,50000,1127,50000,0,0,0,0,0.00,0.00,0.00,0.00
2016-10-23 20:20:00,2,50000,0,0.00,2,2,0,2,50000,50000,0,50000,0,0,0,0,0.00,0.00,0.00,0.00
2016-10-23 20:30:00,2,50000,0,0.00,2,2,0,2,50000,50000,0,50000,0,0,0,0,0.00,0.00,0.00,0.00
2016-10-23 20:40:00,2,50000,0,0.00,2,2,0,2,50000,50000,0,50000,0,0,0,0,0.00,0.00,0.00,0.00
2016-10-23 20:50:00,2,50000,0,0.00,2,2,0,2,50000,50000,0,50000,0,0,0,0,0.00,0.00,0.00,0.00
2016-10-23 21:00:00,2,50000,0,0.00,2,2,0,2,50000,50000,0,50000,0,0,0,0,0.00,0.00,0.00,0.00
2016-10-23 21:10:00,2,50000,0,0.00,2,2,0,2,50000,50000,0,50000,0,0,0,0,0.00,0.00,0.00,0.00
2016-10-23 21:20:00,2,49883,0,0.00,2,2,0,2,49192,50000,255,50000,0,0,0,0,0.00,0.00,0.00,0.00
2016-10-23 21:30:00,2,50000,0,0.00,2,2,0,2,50000,50000,0,50000,0,0,0,0,0.00,0.00,0.00,0.00
2016-10-23 21:40:00,2,50000,0,0.00,2,2,0,2,50000,50000,0,50000,0,0,0,0,0.00,0.00,0.00,0.00
2016-10-23 21:50:00,2,50000,0,0.00,2,2,0,2,50000,50000,0,50000,0,0,0,0,0.00,0.00,0.00,0.00
2016-10-23 22:00:00,2,50000,0,0.00,2,2,0,2,50000,50000,0,50000,0,0,0,0,0.00,0.00,0.00,0.00
2016-10-23 22:10:00,2,50000,0,0.00,2,2,0,2,50000,50000,0,50000,0,0,0,0,0.00,0.00,0.00,0.00
2016-10-23 22:20:00,2,50000,0,0.00,2,2,0,2,50000,50000,0,50000,0,0,0,0,0.00,0.00,0.00,0.00
2016-10-23 22:30:00,2,50000,0,0.00,2,2,0,2,50000,50000,0,50000,0,0,0,0,0.00,0.00,0.00,0.00
2016-10-23 22:40:00,2,50000,0,0.00,2,2,0,2,50000,50000,0,50000,0,0,0,0,0.00,0.00,0.00,0.00
2016-10-23 22:50:00,2,50000,0,0.00,2,2,0,2,50000,50000,0,50000,0,0,0,0,0.00,0.00,0.00,0.00
2016-10-23 23:00:00,2,50000,0,0.00,2,2,0,2,50000,50000,0,50000,0,0,0,0,0.00,0.00,0.00,0.00
2016-10-23 23:10:00,2,50000,0,0.00,2,2,0,2,50000,50000,0,50000,0,0,0,0,0.00,0.00,0.00,0.00
2016-10-23 23:20:00,2,50000,0,0.00,2,2,0,2,50000,50000,0,50000,0,0,0,0,0.00,0.00,0.00,0.00
2016-10-23 23:30:00,2,49897,0,0.00,2,2,0,2,49278,50000,226,50000,0,0,0,0,0.00,0.00,0.00,0.00
2016-10-23 23:40:00,2,49958,0,0.00,2,2,0,2,49580,50000,126,50000,0,0,0,0,0.00,0.00,0.00,0.00
2016-10-23 23:50:00,2,50000,0,0.00,2,2,0,2,50000,50000,0,50000,0,0,0,0,0.00,0.00,0.00,0.00
